Weather History for Deering, AK

Change the Weather History Date:

Friday, November 30, 2012

  Actual Average (PAOT) Record (PAOT)
Temperature  
Mean Temperature -2 °F -  
Max Temperature 9 °F 11 °F 38 °F (1983)
Min Temperature -13 °F -1 °F -35 °F (1948)
Degree Days  
Heating Degree Days 67 60  
Month to date heating degree days 1677  
Since 1 July heating degree days 4359  
Cooling Degree Days 0    
Month to date cooling degree days  
Year to date cooling degree days  
Moisture  
Dew Point -5 °F    
Average Humidity 82    
Maximum Humidity 87    
Minimum Humidity 71    
Precipitation  
Precipitation 0.01 in 0.02 in 0.12 in (2004)
Month to date precipitation 0.77  
Year to date precipitation 10.24  
Snow  
Snow 0.00 in 0.40 in 4.80 in (2003)
Month to date snowfall 10.5  
Since 1 July snowfall 17.4  
Since 1 September snowfall 17.4  
Snow Depth -    
Sea Level Pressure  
Sea Level Pressure 30.21 in    
Wind  
Wind Speed 1 mph (SW)    
Max Wind Speed 5 mph    
Max Gust Speed -    
Visibility 8 miles    
Events Snow    
T = Trace of Precipitation, MM = Missing Value Source: NWS Daily Summary

Daily Weather History Graph

Daily Weather History Graph

Search for Another Location

Airport:

Trip Planner

Search our weather history database for the weather conditions in past years. The results will help you decide how hot, cold, wet, or windy it might be!

Date:

Astronomy

Nov. 30, 2012 Rise Set
Actual Time 11:38 AM AKST 3:40 PM AKST
Civil Twilight 10:14 AM AKST 5:05 PM AKST
Nautical Twilight 9:01 AM AKST 6:17 PM AKST
Astronomical Twilight 7:58 AM AKST 7:21 PM AKST
Moon 6:00 PM AKST (11/30) 1:08 PM AKST (11/30)
Length of Visible Light 6h 50m
Length of Day
4h 02m
Waning Gibbous, 95% of the Moon is Illuminated
Nov 30
Waning Gibbous
Dec 6
Last Quarter
Dec 12
New
Dec 19
First Quarter
Dec 28
Full

Hourly Weather History & Observations

Time (AKST) Temp. Windchill Dew Point Humidity Pressure Visibility Wind Dir Wind Speed Gust Speed Precip Events Conditions
12:53 AM -11.0 °F - -18.0 °F 71% 30.31 in 10.0 mi Calm Calm - 0.00 in   Clear
1:53 AM -11.9 °F - -16.1 °F 82% 30.32 in 10.0 mi Calm Calm - N/A   Clear
2:53 AM -13.0 °F -22.7 °F -17.0 °F 82% 30.32 in 10.0 mi WSW 3.5 mph - N/A   Clear
3:53 AM -11.0 °F -20.4 °F -14.1 °F 86% 30.32 in 10.0 mi SSW 3.5 mph - N/A   Clear
4:53 AM -11.9 °F - -16.1 °F 82% 30.29 in 10.0 mi Calm Calm - N/A   Clear
5:53 AM -9.9 °F - -15.0 °F 78% 30.30 in 10.0 mi Calm Calm - N/A   Clear
6:53 AM -9.9 °F - -16.1 °F 74% 30.28 in 10.0 mi Calm Calm - N/A   Clear
7:53 AM -11.0 °F -20.4 °F -15.0 °F 83% 30.27 in 10.0 mi SSW 3.5 mph - N/A   Clear
8:53 AM -8.0 °F - -13.0 °F 79% 30.27 in 10.0 mi Calm Calm - N/A   Clear
9:53 AM -5.1 °F - -9.0 °F 83% 30.25 in 10.0 mi Calm Calm - N/A   Clear
10:53 AM -2.9 °F - -7.1 °F 82% 30.24 in 10.0 mi Calm Calm - N/A   Clear
11:53 AM -0.9 °F - -6.0 °F 79% 30.23 in 10.0 mi Calm Calm - N/A   Clear
12:53 PM 1.9 °F - -2.9 °F 80% 30.22 in 10.0 mi Calm Calm - N/A   Partly Cloudy
1:53 PM 1.9 °F - -2.9 °F 80% 30.20 in 10.0 mi Calm Calm - N/A   Clear
2:53 PM 3.0 °F - -0.9 °F 84% 30.19 in 10.0 mi Calm Calm - N/A   Overcast
3:53 PM 5.0 °F - 1.0 °F 84% 30.18 in 10.0 mi Calm Calm - N/A   Overcast
4:53 PM 5.0 °F - 1.0 °F 84% 30.17 in 10.0 mi Calm Calm - N/A   Overcast
5:53 PM 7.0 °F - 1.9 °F 80% 30.17 in 10.0 mi Calm Calm - N/A   Overcast
6:53 PM 7.0 °F - 3.0 °F 84% 30.15 in 10.0 mi Calm Calm - N/A   Overcast
7:53 PM 8.1 °F - 3.9 °F 83% 30.14 in 10.0 mi Calm Calm - N/A   Overcast
8:53 PM 9.0 °F - 5.0 °F 84% 30.12 in 4.0 mi Calm Calm - 0.00 in Snow Light Snow
9:24 PM 8.6 °F - 5.0 °F 85% 30.10 in 2.5 mi Calm Calm - 0.00 in Snow Light Snow
9:43 PM 8.6 °F - 3.2 °F 79% 30.10 in 3.0 mi Calm Calm - 0.00 in Snow Light Snow
9:53 PM 8.1 °F - 5.0 °F 87% 30.10 in 3.0 mi Calm Calm - 0.00 in Snow Light Snow
10:53 PM 8.1 °F -0.5 °F 3.9 °F 83% 30.09 in 5.0 mi NE 4.6 mph - 0.00 in Snow Light Snow
11:53 PM 9.0 °F - 5.0 °F 84% 30.08 in 3.0 mi Calm Calm - 0.01 in Snow Light Snow